Salina, KS

7:17 AM CST on February 08, 2016 (GMT -0600)
Salina Municipal

Weather History for KSLN - October, 2011

Change the Weather History Date:

Saturday, October 22, 2011

  Actual Average Record
Temperature  
Mean Temperature 56 °F 55 °F  
Max Temperature 72 °F 67 °F 89 °F (1927)
Min Temperature 39 °F 44 °F 23 °F (1898)
Degree Days  
Heating Degree Days 9 10  
Month to date heating degree days 134 161  
Since 1 July heating degree days 193 213  
Cooling Degree Days 0 0  
Month to date cooling degree days 45 32  
Year to date cooling degree days 2003 1644  
Growing Degree Days 6 (Base 50)    
Moisture  
Dew Point 42 °F    
Average Humidity 62    
Maximum Humidity 86    
Minimum Humidity 38    
Precipitation  
Precipitation 0.00 in 0.07 in 0.44 in (1957)
Month to date precipitation 0.81 1.77  
Year to date precipitation 16.95 28.81  
Sea Level Pressure  
Sea Level Pressure 30.06 in    
Wind  
Wind Speed 2 mph (South)    
Max Wind Speed 14 mph    
Max Gust Speed 18 mph    
Visibility 10 miles    
Events      
T = Trace of Precipitation, MM = Missing Value Source: NWS Daily Summary

Daily Weather History Graph

Daily Weather History Graph

Search for Another Location

Airport or City:

Trip Planner

Search our weather history database for the weather conditions in past years. The results will help you decide how hot, cold, wet, or windy it might be!

Date:

Astronomy

Oct. 22, 2011 Rise Set
Actual Time 7:46 AM CDT 6:42 PM CDT
Civil Twilight 7:19 AM CDT 7:09 PM CDT
Nautical Twilight 6:48 AM CDT 7:40 PM CDT
Astronomical Twilight 6:17 AM CDT 8:11 PM CDT
Moon 2:48 AM CDT (10/22) 3:59 PM CDT (10/22)
Length of Visible Light 11h 50m
Length of Day
10h 56m
Waning Crescent, 23% of the Moon is Illuminated
Oct 22
Waning Crescent
Oct 26
New
Nov 2
First Quarter
Nov 10
Full
Nov 18
Last Quarter

Hourly Weather History & Observations

Time (CDT) Temp. Windchill Dew Point Humidity Pressure Visibility Wind Dir Wind Speed Gust Speed Precip Events Conditions
12:53 AM 46.9 °F - 37.9 °F 71% 30.09 in 10.0 mi Calm Calm - N/A   Clear
1:53 AM 42.8 °F 41.1 °F 37.4 °F 81% 30.09 in 10.0 mi South 3.5 mph - N/A   Clear
2:53 AM 44.1 °F - 37.9 °F 79% 30.07 in 10.0 mi Calm Calm - N/A   Clear
3:53 AM 44.1 °F - 37.0 °F 76% 30.07 in 10.0 mi Calm Calm - N/A   Clear
4:53 AM 43.0 °F - 37.0 °F 80% 30.07 in 10.0 mi Calm Calm - N/A   Clear
5:53 AM 39.9 °F - 36.0 °F 86% 30.09 in 10.0 mi Calm Calm - N/A   Clear
6:53 AM 41.0 °F - 37.0 °F 86% 30.09 in 10.0 mi Calm Calm - N/A   Clear
7:53 AM 43.0 °F - 37.0 °F 80% 30.09 in 10.0 mi Calm Calm - N/A   Clear
8:53 AM 46.9 °F - 39.9 °F 77% 30.11 in 10.0 mi Calm Calm - N/A   Clear
9:53 AM 50.0 °F - 41.0 °F 71% 30.11 in 10.0 mi Calm Calm - N/A   Clear
10:53 AM 57.0 °F - 43.0 °F 59% 30.09 in 10.0 mi South 3.5 mph - N/A   Clear
11:53 AM 66.0 °F - 43.0 °F 43% 30.08 in 10.0 mi Calm Calm - N/A   Clear
12:53 PM 70.0 °F - 45.0 °F 41% 30.07 in 10.0 mi East 3.5 mph - N/A   Clear
1:53 PM 71.1 °F - 44.1 °F 38% 30.05 in 10.0 mi Calm Calm - N/A   Clear
2:53 PM 72.0 °F - 44.1 °F 37% 30.04 in 10.0 mi Variable 4.6 mph - N/A   Partly Cloudy
3:53 PM 71.1 °F - 44.1 °F 38% 30.02 in 10.0 mi SSW 5.8 mph - N/A   Scattered Clouds
4:53 PM 71.1 °F - 46.0 °F 41% 30.00 in 10.0 mi SSE 12.7 mph - N/A   Mostly Cloudy
5:53 PM 69.1 °F - 46.9 °F 45% 29.99 in 10.0 mi SSE 6.9 mph - N/A   Partly Cloudy
6:53 PM 66.0 °F - 46.9 °F 50% 30.00 in 10.0 mi Calm Calm - N/A   Scattered Clouds
7:53 PM 60.1 °F - 46.0 °F 60% 30.01 in 10.0 mi NW 4.6 mph - N/A   Clear
8:53 PM 55.9 °F - 45.0 °F 67% 30.03 in 10.0 mi NW 3.5 mph - N/A   Clear
9:53 PM 53.1 °F - 45.0 °F 74% 30.04 in 10.0 mi Calm Calm - N/A   Clear
10:53 PM 51.1 °F - 45.0 °F 80% 30.03 in 10.0 mi SSW 3.5 mph - N/A   Clear
11:53 PM 48.9 °F - 44.1 °F 83% 30.01 in 10.0 mi Calm Calm - N/A   Clear